Location: Bayshore Village Mobile Home Park
(26.6945°N, 81.8642°W)
Time: 15:09:01
(UTC+00:00)

SL-16 R/B - Pass Details

Date: 17 June 2021
Orbit: 985 x 1007 km, 99.5° (Epoch: 27 July)

Event Time Altitude Azimuth Distance (km) Brightness Sun altitude
Exits shadow 08:11:28 35° 287° (WNW) 1,542 3.3 -26.3°
Drops below altitude 10° 08:15:55 10° 328° (NNW) 2,757 5.0 -25.6°
Sets 08:18:34 0° 336° (NNW) 3,705 5.8 -25.2°
